{"data":{"norad_id":62488,"intl_designator":"2025-003B","name":"STARLINK-32732","alt_names":[],"object_type":"PAYLOAD","status":"ACTIVE","operator":null,"country":"US","launch_date":"2025-01-06","launch_site_code":"AFETR","launch_vehicle":null,"mission":null,"orbit_class":"UNKNOWN","rcs_meters":null,"size_class":null,"mass_kg":null,"dimensions":null,"purposes":["comms"],"wikipedia_slug":null,"has_3d_model":false,"image_url":null,"decayed_at":null,"tle_current":{"epoch":"2026-09-21T16:52:51.325248Z","epoch_age_seconds":70606,"freshness":"FRESH","line1":"1 62488U 25003B   26264.70337182  .00008938  00000+0  33366-3 0  9990","line2":"2 62488  43.0032 261.6144 0001555 272.3689  87.6984 15.27605611 96538","mean_motion":15.27605611,"eccentricity":0.0001555,"inclination_deg":43.0032,"raan_deg":261.6144,"arg_perigee_deg":272.3689,"mean_anomaly_deg":87.6984,"bstar":0.00033366,"rev_number":9653,"period_min":94.265168288911,"perigee_km":481.90550605055,"apogee_km":484.03931107661,"semimajor_km":6861.1094085636,"source":"CELESTRAK","updated_at":"2026-09-22T09:00:49.616212Z"}}}